Time,TemperatureF,DewpointF,PressureIn,WindDirection,WindDirectionDegrees,WindSpeedMPH,WindSpeedGustMPH,Humidity,HourlyPrecipIn,Conditions,Clouds,dailyrainin,SoftwareType,DateUTC
2013-07-17 00:23:00,72.3,69.8,29.90,ESE,112,3.2,-999.0,92,-99.99,,,0.00,Acu-Link.com,2013-07-17 05:23:00,
2013-07-17 00:38:00,72.0,69.9,29.91,ESE,112,4.2,-999.0,93,-99.99,,,0.00,Acu-Link.com,2013-07-17 05:38:00,
2013-07-17 01:23:00,71.6,69.5,29.91,NNE,22,0.0,-999.0,93,-99.99,,,0.00,Acu-Link.com,2013-07-17 06:23:00,
2013-07-17 01:38:00,71.2,70.0,29.90,East,90,0.0,-999.0,96,-99.99,,,0.00,Acu-Link.com,2013-07-17 06:38:00,
2013-07-17 01:53:00,71.4,70.2,29.89,North,0,0.0,-999.0,96,-99.99,,,0.01,Acu-Link.com,2013-07-17 06:53:00,
2013-07-17 02:09:00,71.4,70.5,29.89,North,0,0.0,-999.0,97,-99.99,,,0.03,Acu-Link.com,2013-07-17 07:09:00,
2013-07-17 02:24:00,71.4,70.5,29.87,North,0,0.0,-999.0,97,-99.99,,,0.03,Acu-Link.com,2013-07-17 07:24:00,
2013-07-17 02:39:00,71.4,70.5,29.87,WSW,247,0.0,-999.0,97,-99.99,,,0.03,Acu-Link.com,2013-07-17 07:39:00,
2013-07-17 03:41:00,71.4,70.5,29.87,East,90,0.0,-999.0,97,-99.99,,,0.03,Acu-Link.com,2013-07-17 08:41:00,
2013-07-17 03:56:00,71.4,70.8,29.88,South,180,0.0,-999.0,98,-99.99,,,0.03,Acu-Link.com,2013-07-17 08:56:00,
2013-07-17 04:30:00,71.2,70.6,29.87,NE,45,0.0,-999.0,98,-99.99,,,0.03,Acu-Link.com,2013-07-17 09:30:00,
2013-07-17 04:46:00,71.4,70.8,29.88,ENE,67,0.0,-999.0,98,-99.99,,,0.03,Acu-Link.com,2013-07-17 09:46:00,
2013-07-17 05:24:00,71.4,70.8,29.89,NE,45,0.0,-999.0,98,-99.99,,,0.03,Acu-Link.com,2013-07-17 10:24:00,
2013-07-17 05:40:00,71.8,71.2,29.89,NNE,22,0.0,-999.0,98,-99.99,,,0.03,Acu-Link.com,2013-07-17 10:40:00,
2013-07-17 06:25:00,72.0,71.4,29.89,North,0,0.0,-999.0,98,-99.99,,,0.03,Acu-Link.com,2013-07-17 11:25:00,
2013-07-17 06:40:00,72.0,71.4,29.91,North,0,0.0,-999.0,98,-99.99,,,0.03,Acu-Link.com,2013-07-17 11:40:00,
2013-07-17 06:55:00,72.3,71.7,29.90,NE,45,0.0,-999.0,98,-99.99,,,0.03,Acu-Link.com,2013-07-17 11:55:00,
2013-07-17 07:10:00,72.3,71.7,29.91,North,0,1.7,-999.0,98,-99.99,,,0.03,Acu-Link.com,2013-07-17 12:10:00,
2013-07-17 07:26:00,72.7,72.1,29.91,WNW,292,0.0,-999.0,98,-99.99,,,0.03,Acu-Link.com,2013-07-17 12:26:00,
2013-07-17 07:41:00,73.0,72.4,29.92,NE,45,0.0,-999.0,98,-99.99,,,0.03,Acu-Link.com,2013-07-17 12:41:00,
2013-07-17 07:56:00,73.4,72.8,29.92,NNE,22,0.0,-999.0,98,-99.99,,,0.03,Acu-Link.com,2013-07-17 12:56:00,
2013-07-17 08:12:00,73.9,73.0,29.92,NNE,22,2.2,-999.0,97,-99.99,,,0.03,Acu-Link.com,2013-07-17 13:12:00,
2013-07-17 08:27:00,74.7,73.5,29.93,North,0,2.2,-999.0,96,-99.99,,,0.03,Acu-Link.com,2013-07-17 13:27:00,
2013-07-17 08:42:00,75.7,74.2,29.93,East,90,0.0,-999.0,95,-99.99,,,0.03,Acu-Link.com,2013-07-17 13:42:00,
2013-07-17 08:57:00,76.3,74.4,29.93,South,180,0.0,-999.0,94,-99.99,,,0.03,Acu-Link.com,2013-07-17 13:57:00,
2013-07-17 09:13:00,77.2,74.7,29.93,WSW,247,0.0,-999.0,92,-99.99,,,0.03,Acu-Link.com,2013-07-17 14:13:00,
2013-07-17 09:28:00,77.2,74.7,29.93,ESE,112,2.7,-999.0,92,-99.99,,,0.03,Acu-Link.com,2013-07-17 14:28:00,
2013-07-17 09:43:00,77.9,75.1,29.94,NE,45,0.0,-999.0,91,-99.99,,,0.03,Acu-Link.com,2013-07-17 14:43:00,
2013-07-17 09:59:00,79.3,76.1,29.93,SE,135,0.0,-999.0,90,-99.99,,,0.03,Acu-Link.com,2013-07-17 14:59:00,
2013-07-17 10:14:00,81.0,77.1,29.93,NE,45,0.0,-999.0,88,-99.99,,,0.03,Acu-Link.com,2013-07-17 15:14:00,
2013-07-17 10:29:00,80.2,76.0,29.93,West,270,2.2,-999.0,87,-99.99,,,0.03,Acu-Link.com,2013-07-17 15:29:00,
2013-07-17 10:45:00,80.8,76.6,29.93,South,180,3.7,-999.0,87,-99.99,,,0.03,Acu-Link.com,2013-07-17 15:45:00,
2013-07-17 11:00:00,82.2,76.5,29.93,ESE,112,6.3,-999.0,83,-99.99,,,0.03,Acu-Link.com,2013-07-17 16:00:00,
2013-07-17 11:15:00,85.3,77.2,29.93,ENE,67,2.7,-999.0,77,-99.99,,,0.03,Acu-Link.com,2013-07-17 16:15:00,
2013-07-17 11:30:00,84.6,76.2,29.92,SSE,157,5.3,-999.0,76,-99.99,,,0.03,Acu-Link.com,2013-07-17 16:30:00,
2013-07-17 11:46:00,87.8,76.8,29.92,NNE,22,5.8,-999.0,70,-99.99,,,0.03,Acu-Link.com,2013-07-17 16:46:00,
2013-07-17 12:01:00,87.1,75.2,29.91,SSE,157,8.3,-999.0,68,-99.99,,,0.03,Acu-Link.com,2013-07-17 17:01:00,
2013-07-17 12:16:00,86.9,75.0,29.91,South,180,8.3,-999.0,68,-99.99,,,0.03,Acu-Link.com,2013-07-17 17:16:00,
2013-07-17 13:26:00,88.0,74.3,29.90,ESE,112,2.2,-999.0,64,-99.99,,,0.03,Acu-Link.com,2013-07-17 18:26:00,
2013-07-17 13:41:00,90.1,73.8,29.88,ENE,67,3.7,-999.0,59,-99.99,,,0.03,Acu-Link.com,2013-07-17 18:41:00,
2013-07-17 13:56:00,91.2,74.8,29.87,NW,315,1.1,-999.0,59,-99.99,,,0.03,Acu-Link.com,2013-07-17 18:56:00,
2013-07-17 14:12:00,91.2,73.8,29.86,West,270,3.7,-999.0,57,-99.99,,,0.03,Acu-Link.com,2013-07-17 19:12:00,
2013-07-17 14:27:00,93.2,72.9,29.85,SSE,157,7.8,-999.0,52,-99.99,,,0.03,Acu-Link.com,2013-07-17 19:27:00,
2013-07-17 14:42:00,92.8,72.5,29.85,SSE,157,4.2,-999.0,52,-99.99,,,0.03,Acu-Link.com,2013-07-17 19:42:00,
2013-07-17 14:57:00,93.0,73.9,29.83,NE,45,2.7,-999.0,54,-99.99,,,0.03,Acu-Link.com,2013-07-17 19:57:00,
2013-07-17 15:13:00,91.6,72.6,29.82,SSE,157,2.7,-999.0,54,-99.99,,,0.03,Acu-Link.com,2013-07-17 20:13:00,
2013-07-17 16:42:00,89.6,75.3,29.82,SW,225,0.0,-999.0,63,-99.99,,,0.03,Acu-Link.com,2013-07-17 21:42:00,
2013-07-17 16:57:00,88.0,76.5,29.82,WSW,247,0.0,-999.0,69,-99.99,,,0.03,Acu-Link.com,2013-07-17 21:57:00,
2013-07-17 17:12:00,86.4,77.5,29.83,ENE,67,4.2,-999.0,75,-99.99,,,0.03,Acu-Link.com,2013-07-17 22:12:00,
2013-07-17 17:28:00,75.9,71.7,29.85,West,270,1.7,-999.0,87,-99.99,,,0.04,Acu-Link.com,2013-07-17 22:28:00,
2013-07-17 17:43:00,76.5,73.0,29.86,SSW,202,0.0,-999.0,89,-99.99,,,0.36,Acu-Link.com,2013-07-17 22:43:00,
2013-07-17 17:58:00,76.1,72.9,29.86,NNW,337,0.0,-999.0,90,-99.99,,,0.37,Acu-Link.com,2013-07-17 22:58:00,
2013-07-17 18:13:00,76.3,73.8,29.86,SW,225,0.0,-999.0,92,-99.99,,,0.37,Acu-Link.com,2013-07-17 23:13:00,
2013-07-17 19:43:00,76.8,74.0,29.86,SW,225,0.0,-999.0,91,-99.99,,,0.37,Acu-Link.com,2013-07-18 00:43:00,
2013-07-17 19:58:00,76.6,74.1,29.86,NE,45,0.0,-999.0,92,-99.99,,,0.37,Acu-Link.com,2013-07-18 00:58:00,
2013-07-17 20:13:00,76.5,74.0,29.87,NNW,337,0.0,-999.0,92,-99.99,,,0.37,Acu-Link.com,2013-07-18 01:13:00,
2013-07-17 21:43:00,74.5,73.0,29.87,ENE,67,0.0,-999.0,95,-99.99,,,0.37,Acu-Link.com,2013-07-18 02:43:00,
2013-07-17 21:58:00,74.3,73.1,29.87,SSE,157,0.0,-999.0,96,-99.99,,,0.37,Acu-Link.com,2013-07-18 02:58:00,
2013-07-17 22:13:00,74.1,72.9,29.87,NE,45,0.0,-999.0,96,-99.99,,,0.37,Acu-Link.com,2013-07-18 03:13:00,
2013-07-17 23:44:00,73.6,72.7,29.89,NNE,22,0.0,-999.0,97,-99.99,,,0.37,Acu-Link.com,2013-07-18 04:44:00,
2013-07-17 23:59:00,73.6,72.7,29.89,West,270,0.0,-999.0,97,-99.99,,,0.37,Acu-Link.com,2013-07-18 04:59:00,